Location: Bu�n Treun
(12.1333°N, 108.3167°E)
Time: 00:24:08
(UTC+00:00)

CZ-4B R/B - Pass Details

Date: 13 July 2020
Orbit: 496 x 647 km, 97.8° (Epoch: 03 August)

Event Time Altitude Azimuth Distance (km) Brightness Sun altitude
Rises 21:35:10 0° 359° (N) 2,730 7.7 -12.9°
Reaches altitude 10° 21:37:26 10° 351° (N) 1,810 6.7 -12.4°
Maximum altitude 21:41:02 37° 284° (WNW) 833 4.3 -11.6°
Enters shadow 21:44:06 13° 218° (SW) 1,580 5.6 -11.0°
